AEE2AM LGMK-LGAV

Flight info

Callsign AEE2AM
Flight time 0h 31m
Altitude 12000
Route VARIX
Aircraft A320/M-SDE3FGHIRWY/LB1

Departure

Time 2026-04-24 12:56
Airport Mykonos Island National Airport (LGMK)

Arrival

Time 2026-04-24 13:28
Airport Athens Eleftherios Venizelos International Airport (LGAV)
Time Latitude Longitude Altitude Speed Heading
2026-04-24 12:26 37.43507 25.34643 405 ft 0 kts 251°
2026-04-24 12:28 37.43507 25.34644 404 ft 0 kts 251°
2026-04-24 12:49 37.43509 25.34651 407 ft 4 kts 252°
2026-04-24 12:49 37.43517 25.34683 405 ft 4 kts 244°
2026-04-24 12:49 37.43527 25.34702 404 ft 3 kts 165°
2026-04-24 12:49 37.43530 25.34701 405 ft 0 kts 159°
2026-04-24 12:51 37.43523 25.34704 406 ft 3 kts 160°
2026-04-24 12:51 37.43493 25.34717 408 ft 6 kts 162°
2026-04-24 12:52 37.43451 25.34735 405 ft 8 kts 158°
2026-04-24 12:52 37.43414 25.34788 409 ft 8 kts 116°
2026-04-24 12:52 37.43391 25.34848 410 ft 7 kts 115°
2026-04-24 12:52 37.43356 25.34892 412 ft 8 kts 154°
2026-04-24 12:53 37.43295 25.34919 413 ft 11 kts 161°
2026-04-24 12:53 37.43209 25.34957 412 ft 15 kts 160°
2026-04-24 12:53 37.43099 25.35006 410 ft 12 kts 161°
2026-04-24 12:53 37.43012 25.35044 414 ft 15 kts 160°
2026-04-24 12:54 37.42938 25.35077 413 ft 18 kts 160°
2026-04-24 12:54 37.42809 25.35132 411 ft 17 kts 167°
2026-04-24 12:54 37.42727 25.35136 407 ft 9 kts 159°
2026-04-24 12:54 37.42747 25.35169 408 ft 8 kts 343°
2026-04-24 12:55 37.42791 25.35144 411 ft 8 kts 336°
2026-04-24 12:55 37.42821 25.35129 411 ft 0 kts 340°
2026-04-24 12:55 37.42834 25.35123 411 ft 12 kts 340°
2026-04-24 12:56 37.43163 25.34978 413 ft 85 kts 340°
2026-04-24 12:56 37.43895 25.34654 475 ft 130 kts 341°
2026-04-24 12:56 37.44748 25.34261 1070 ft 131 kts 343°
2026-04-24 12:56 37.45613 25.33875 1781 ft 132 kts 344°
2026-04-24 12:57 37.46459 25.33415 2364 ft 142 kts 330°
2026-04-24 12:57 37.47118 25.32334 2655 ft 175 kts 296°
2026-04-24 12:57 37.47353 25.30705 2952 ft 200 kts 283°
2026-04-24 12:57 37.47555 25.28871 3205 ft 224 kts 283°
2026-04-24 12:58 37.47783 25.26815 3607 ft 250 kts 282°
2026-04-24 12:58 37.48035 25.24557 4192 ft 268 kts 282°
2026-04-24 12:58 37.48278 25.22198 5088 ft 275 kts 280°
2026-04-24 12:58 37.48450 25.19773 6038 ft 278 kts 277°
2026-04-24 12:59 37.48569 25.17332 6963 ft 281 kts 276°
2026-04-24 12:59 37.48668 25.14858 7871 ft 284 kts 275°
2026-04-24 12:59 37.48764 25.12361 8770 ft 286 kts 274°
2026-04-24 12:59 37.48862 25.09838 9668 ft 289 kts 274°
2026-04-24 13:00 37.48930 25.08153 10192 ft 293 kts 275°
2026-04-24 13:00 37.49042 25.05495 10514 ft 316 kts 274°
2026-04-24 13:00 37.49224 25.02642 10721 ft 338 kts 279°
2026-04-24 13:00 37.49810 24.98620 10902 ft 368 kts 282°
2026-04-24 13:01 37.50343 24.95381 11110 ft 385 kts 282°
2026-04-24 13:01 37.50911 24.92052 11643 ft 391 kts 282°
2026-04-24 13:01 37.51299 24.89782 11865 ft 393 kts 282°
2026-04-24 13:01 37.51866 24.86452 11982 ft 396 kts 282°
2026-04-24 13:02 37.52625 24.81890 12003 ft 399 kts 282°
2026-04-24 13:02 37.52997 24.79624 12000 ft 399 kts 282°
2026-04-24 13:02 37.53554 24.76200 12002 ft 399 kts 281°
2026-04-24 13:02 37.54106 24.72778 12002 ft 399 kts 281°
2026-04-24 13:03 37.54656 24.69352 12004 ft 399 kts 281°
2026-04-24 13:03 37.55204 24.65920 12006 ft 400 kts 281°
2026-04-24 13:03 37.55754 24.62483 12006 ft 400 kts 281°
2026-04-24 13:03 37.56303 24.59051 12006 ft 399 kts 281°
2026-04-24 13:04 37.56851 24.55622 12008 ft 399 kts 281°
2026-04-24 13:04 37.57399 24.52188 12011 ft 399 kts 281°
2026-04-24 13:04 37.57946 24.48759 11989 ft 400 kts 281°
2026-04-24 13:04 37.58492 24.45324 11735 ft 398 kts 281°
2026-04-24 13:05 37.59035 24.41905 11483 ft 398 kts 281°
2026-04-24 13:05 37.59577 24.38492 11233 ft 396 kts 282°
2026-04-24 13:05 37.60116 24.35092 10981 ft 391 kts 282°
2026-04-24 13:05 37.60634 24.31805 10729 ft 374 kts 282°
2026-04-24 13:06 37.61130 24.28658 10489 ft 359 kts 282°
2026-04-24 13:06 37.61606 24.25624 10256 ft 346 kts 282°
2026-04-24 13:06 37.62061 24.22733 10010 ft 335 kts 282°
2026-04-24 13:06 37.62508 24.19894 9854 ft 324 kts 282°
2026-04-24 13:07 37.62937 24.17151 9716 ft 312 kts 282°
2026-04-24 13:07 37.63350 24.14512 9587 ft 301 kts 282°
2026-04-24 13:07 37.63748 24.11964 9456 ft 292 kts 282°
2026-04-24 13:07 37.64139 24.09459 9323 ft 289 kts 283°
2026-04-24 13:08 37.64527 24.06969 9192 ft 289 kts 283°
2026-04-24 13:08 37.64913 24.04489 9058 ft 289 kts 284°
2026-04-24 13:08 37.65300 24.02010 8910 ft 288 kts 283°
2026-04-24 13:09 37.66073 23.97028 8165 ft 287 kts 284°
2026-04-24 13:09 37.66454 23.94563 7835 ft 285 kts 283°
2026-04-24 13:09 37.66828 23.92122 7286 ft 281 kts 283°
2026-04-24 13:09 37.67196 23.89706 6694 ft 279 kts 284°
2026-04-24 13:10 37.67563 23.87315 6113 ft 276 kts 284°
2026-04-24 13:10 37.67925 23.84972 5507 ft 273 kts 284°
2026-04-24 13:10 37.68286 23.82619 4894 ft 273 kts 284°
2026-04-24 13:10 37.68639 23.80314 4605 ft 260 kts 284°
2026-04-24 13:11 37.69141 23.78239 4454 ft 235 kts 305°
2026-04-24 13:11 37.70180 23.76815 4368 ft 212 kts 332°
2026-04-24 13:11 37.71514 23.76149 4253 ft 206 kts 355°
2026-04-24 13:11 37.72919 23.76251 4102 ft 202 kts 18°
2026-04-24 13:12 37.74152 23.77073 3961 ft 201 kts 37°
2026-04-24 13:12 37.75270 23.78134 3914 ft 202 kts 37°
2026-04-24 13:12 37.76396 23.79200 3877 ft 202 kts 37°
2026-04-24 13:12 37.77516 23.80258 3832 ft 197 kts 36°
2026-04-24 13:13 37.78591 23.81275 3688 ft 190 kts 36°
2026-04-24 13:13 37.79638 23.82266 3479 ft 187 kts 36°
2026-04-24 13:13 37.80673 23.83245 3246 ft 185 kts 36°
2026-04-24 13:13 37.81705 23.84222 2991 ft 184 kts 37°
2026-04-24 13:14 37.82734 23.85196 2746 ft 185 kts 37°
2026-04-24 13:14 37.83762 23.86170 2503 ft 185 kts 36°
2026-04-24 13:14 37.84769 23.87125 2248 ft 178 kts 37°
2026-04-24 13:14 37.85751 23.88056 2027 ft 173 kts 37°
2026-04-24 13:15 37.86665 23.88921 1809 ft 153 kts 37°
2026-04-24 13:15 37.87471 23.89686 1651 ft 139 kts 38°
2026-04-24 13:15 37.88228 23.90404 1418 ft 133 kts 37°
2026-04-24 13:15 37.88961 23.91109 1193 ft 131 kts 38°
2026-04-24 13:16 37.89683 23.91805 1011 ft 131 kts 38°
2026-04-24 13:16 37.90438 23.92472 841 ft 133 kts 37°
2026-04-24 13:16 37.91176 23.93179 661 ft 131 kts 42°
2026-04-24 13:16 37.91896 23.93878 474 ft 130 kts 41°
2026-04-24 13:17 37.92615 23.94567 334 ft 129 kts 41°
2026-04-24 13:17 37.93253 23.95188 301 ft 104 kts 41°
2026-04-24 13:17 37.93926 23.95850 648 ft 137 kts 41°
2026-04-24 13:17 37.94759 23.96642 1389 ft 155 kts 42°
2026-04-24 13:18 37.95343 23.97785 2210 ft 166 kts 72°
2026-04-24 13:18 37.95551 23.99344 2612 ft 191 kts 78°
2026-04-24 13:18 37.95735 24.01070 3140 ft 205 kts 78°
2026-04-24 13:18 37.95919 24.02859 3203 ft 205 kts 79°
2026-04-24 13:19 37.96101 24.04657 3515 ft 207 kts 81°
2026-04-24 13:19 37.95917 24.06465 4336 ft 218 kts 109°
2026-04-24 13:19 37.94958 24.08014 4872 ft 233 kts 144°
2026-04-24 13:19 37.93499 24.08914 4959 ft 234 kts 154°
2026-04-24 13:20 37.91963 24.09511 4716 ft 230 kts 174°
2026-04-24 13:20 37.90389 24.09249 4290 ft 229 kts 201°
2026-04-24 13:20 37.89069 24.08162 3847 ft 227 kts 230°
2026-04-24 13:20 37.88137 24.06551 3310 ft 231 kts 237°
2026-04-24 13:21 37.87161 24.04748 3183 ft 269 kts 238°
2026-04-24 13:21 37.86089 24.02770 3064 ft 273 kts 237°
2026-04-24 13:21 37.85006 24.00783 3180 ft 275 kts 237°
2026-04-24 13:21 37.83925 23.98799 3203 ft 273 kts 236°
2026-04-24 13:22 37.82953 23.96758 3195 ft 264 kts 251°
2026-04-24 13:22 37.82516 23.94639 3204 ft 236 kts 261°
2026-04-24 13:22 37.82177 23.92694 3211 ft 219 kts 262°
2026-04-24 13:22 37.81857 23.90869 3129 ft 210 kts 261°
2026-04-24 13:23 37.81546 23.89053 3035 ft 212 kts 261°
2026-04-24 13:23 37.81238 23.87228 3007 ft 211 kts 262°
2026-04-24 13:23 37.80960 23.85437 3006 ft 208 kts 270°
2026-04-24 13:23 37.81274 23.83767 2966 ft 187 kts 313°
2026-04-24 13:24 37.82320 23.83055 2884 ft 175 kts
2026-04-24 13:24 37.83380 23.83686 2738 ft 176 kts 52°
2026-04-24 13:24 37.83841 23.85099 2553 ft 169 kts 67°
2026-04-24 13:24 37.84403 23.86307 2363 ft 153 kts 50°
2026-04-24 13:25 37.85117 23.87244 2164 ft 143 kts 43°
2026-04-24 13:25 37.85844 23.88041 2005 ft 136 kts 40°
2026-04-24 13:25 37.86569 23.88780 1822 ft 132 kts 39°
2026-04-24 13:25 37.87296 23.89494 1712 ft 133 kts 38°
2026-04-24 13:26 37.88024 23.90223 1495 ft 132 kts 39°
2026-04-24 13:26 37.88750 23.90932 1346 ft 131 kts 37°
2026-04-24 13:26 37.89495 23.91596 1099 ft 132 kts 37°
2026-04-24 13:26 37.90219 23.92263 924 ft 130 kts 40°
2026-04-24 13:27 37.90940 23.92964 725 ft 131 kts 41°
2026-04-24 13:27 37.91668 23.93658 522 ft 129 kts 41°
2026-04-24 13:27 37.92388 23.94354 387 ft 130 kts 39°
2026-04-24 13:27 37.93082 23.95016 306 ft 114 kts 38°
2026-04-24 13:28 37.93616 23.95526 281 ft 71 kts 37°
2026-04-24 13:28 37.93797 23.95679 279 ft 22 kts 22°
2026-04-24 13:28 37.93939 23.95722 284 ft 20 kts
2026-04-24 13:28 37.94002 23.95730 291 ft 0 kts